EEST,Max TemperatureF,Mean TemperatureF,Min TemperatureF,Max Dew PointF,MeanDew PointF,Min DewpointF,Max Humidity, Mean Humidity, Min Humidity, Max Sea Level PressureIn, Mean Sea Level PressureIn, Min Sea Level PressureIn, Max VisibilityMiles, Mean VisibilityMiles, Min VisibilityMiles, Max Wind SpeedMPH, Mean Wind SpeedMPH, Max Gust SpeedMPH,PrecipitationIn, CloudCover, Events, WindDirDegrees
2013-3-1,60,50,41,46,43,39,93,74,48,30.15,30.08,30.01,6,6,5,9,4,,0.00,2,,209
2013-3-2,60,50,41,48,43,39,94,73,45,30.06,29.88,29.77,6,6,4,12,2,,0.00,6,Rain-Thunderstorm,233
2013-3-3,62,53,42,48,43,41,100,72,45,29.98,29.83,29.74,6,6,4,17,7,24,0.00,5,Rain-Thunderstorm,360
2013-3-4,60,50,39,50,43,37,93,74,48,30.15,30.05,29.98,6,6,5,9,3,,0.00,2,,205
2013-3-5,64,52,41,48,42,37,93,68,37,30.30,30.25,30.15,6,6,4,10,2,,0.00,3,,219
2013-3-6,62,52,42,45,38,30,81,60,30,30.27,30.19,30.06,6,6,6,10,4,,0.00,5,,328
2013-3-7,59,54,48,50,47,41,100,81,67,30.06,29.97,29.89,6,5,4,9,3,,0.00,7,Rain,356
2013-3-8,62,55,48,55,51,45,94,83,63,29.92,29.90,29.86,6,4,2,6,1,,0.00,6,Rain,190
2013-3-9,68,59,50,57,54,46,94,82,60,29.89,29.84,29.80,6,6,4,10,5,,0.00,4,Rain,186
2013-3-10,73,60,48,57,52,46,94,79,47,29.89,29.81,29.71,6,6,4,10,1,,0.00,3,Rain,328
2013-3-11,71,60,50,57,53,48,94,79,56,29.71,29.66,29.62,6,6,3,15,3,29,0.00,4,,324
2013-3-12,69,60,50,52,47,43,94,66,43,29.80,29.70,29.65,6,6,5,13,5,,0.00,3,,300
2013-3-13,66,55,44,55,51,43,93,78,60,29.80,29.77,29.71,6,6,3,13,4,,0.00,4,,192
2013-3-14,68,62,51,57,48,43,88,63,43,29.68,29.49,29.36,6,5,2,25,11,38,0.00,7,Rain,217
2013-3-15,60,52,44,48,44,37,93,74,45,29.68,29.57,29.47,6,6,5,16,5,31,0.00,5,Rain-Thunderstorm,267
2013-3-16,55,48,41,41,38,30,93,68,47,30.06,29.88,29.68,6,6,6,16,6,28,0.00,2,Rain,349
2013-3-17,59,47,35,46,34,28,87,58,33,30.18,30.12,30.09,6,6,6,10,3,24,0.00,1,,355
2013-3-18,57,47,37,48,41,34,93,73,48,30.15,30.07,29.98,6,6,6,5,1,,0.00,5,Rain,340
2013-3-19,66,54,42,54,49,41,100,81,64,29.95,29.88,29.83,6,6,6,16,4,,0.00,2,,181
2013-3-20,68,59,50,54,51,48,94,75,52,29.92,29.85,29.74,6,6,6,7,1,,0.00,5,,217
2013-3-21,69,62,55,55,52,43,82,65,49,29.74,29.65,29.59,6,5,3,23,9,29,0.00,6,,199
2013-3-22,62,55,46,46,40,32,82,54,32,29.89,29.78,29.71,6,6,4,20,8,36,0.00,3,Rain,349
2013-3-23,64,52,41,43,38,30,87,57,30,29.98,29.94,29.89,6,6,6,12,3,,0.00,1,,15
2013-3-24,64,50,37,52,45,36,93,72,51,30.01,29.96,29.86,6,6,6,12,5,,0.00,3,,174
2013-3-25,71,58,46,57,48,41,88,69,33,29.86,29.70,29.65,6,6,4,30,8,43,0.00,5,,203
2013-3-26,64,58,51,54,51,46,94,77,59,29.74,29.66,29.59,6,6,2,10,2,,0.00,6,Rain,288
2013-3-27,66,58,50,55,52,46,94,78,60,29.89,29.79,29.74,6,6,6,12,3,,0.00,4,,178
2013-3-28,71,60,48,55,50,46,100,73,41,30.01,29.95,29.89,6,6,3,9,2,,0.00,2,,191
2013-3-29,75,62,50,52,49,45,88,62,36,30.01,29.96,29.89,6,6,5,7,1,,0.00,4,,277
2013-3-30,75,63,51,54,50,46,88,65,41,29.89,29.85,29.83,6,6,6,12,2,,0.00,3,,188
2013-3-31,68,59,50,55,52,46,94,77,56,29.83,29.81,29.77,6,6,6,12,3,,0.00,5,,184
2013-4-1,,,,,,,,,,,,,,,,,,,,,,